| time (UTC) | temp F | wind direction | speed knots | gust knots | rain 1hr in | rain 24hr in | rain mn in | humidity % | barometer mb |
| 20260504204848 | 53 | 300 | 6.1 | 13.0 | 0.00 | 0.00 | 0.00 | 41 | 1016.2 |
| 20260504204337 | 52 | 26 | 3.5 | 11.3 | 0.00 | 0.00 | 0.00 | 42 | 1016.2 |
| 20260504203825 | 52 | 321 | 2.6 | 9.6 | 0.00 | 0.00 | 0.00 | 43 | 1016.2 |
| 20260504203338 | 52 | 289 | 6.1 | 11.3 | 0.00 | 0.00 | 0.00 | 42 | 1016.3 |
| 20260504202824 | 52 | 333 | 6.1 | 11.3 | 0.00 | 0.00 | 0.00 | 42 | 1016.1 |
| 20260504202341 | 53 | 329 | 4.3 | 9.6 | 0.00 | 0.00 | 0.00 | 43 | 1016.3 |
| 20260504201838 | 53 | 80 | 3.5 | 7.8 | 0.00 | 0.00 | 0.00 | 44 | 1016.2 |
| 20260504201353 | 53 | 96 | 3.5 | 9.6 | 0.00 | 0.00 | 0.00 | 44 | 1016.2 |
| 20260504200849 | 53 | 329 | 2.6 | 11.3 | 0.00 | 0.00 | 0.00 | 46 | 1016.3 |
| 20260504200337 | 52 | 55 | 5.2 | 11.3 | 0.00 | 0.00 | 0.00 | 45 | 1016.3 |
| 20260504195825 | 52 | 5 | 2.6 | 8.7 | 0.00 | 0.00 | 0.00 | 46 | 1016.2 |
| 20260504195329 | 52 | 93 | 2.6 | 9.6 | 0.00 | 0.00 | 0.00 | 46 | 1016.3 |
| 20260504194838 | 52 | 31 | 4.3 | 10.4 | 0.00 | 0.00 | 0.00 | 48 | 1016.3 |
| 20260504194357 | 52 | 332 | 5.2 | 10.4 | 0.00 | 0.00 | 0.00 | 47 | 1016.4 |
| 20260504193836 | 52 | 34 | 1.7 | 8.7 | 0.00 | 0.00 | 0.00 | 48 | 1016.4 |
| 20260504193324 | 51 | 47 | 2.6 | 11.3 | 0.00 | 0.00 | 0.00 | 47 | 1016.4 |
| 20260504192902 | 51 | 46 | 3.5 | 11.3 | 0.00 | 0.00 | 0.00 | 49 | 1016.4 |
| 20260504192331 | 51 | 355 | 7.0 | 12.2 | 0.00 | 0.00 | 0.00 | 48 | 1016.3 |
| 20260504191831 | 51 | 327 | 2.6 | 7.8 | 0.00 | 0.00 | 0.00 | 48 | 1016.4 |
| 20260504191324 | 51 | 22 | 3.5 | 12.2 | 0.00 | 0.00 | 0.00 | 48 | 1016.5 |
| 20260504190840 | 50 | 319 | 7.8 | 12.2 | 0.00 | 0.00 | 0.00 | 47 | 1016.4 |
| 20260504190328 | 50 | 324 | 6.1 | 9.6 | 0.00 | 0.00 | 0.00 | 48 | 1016.3 |
| 20260504185903 | 50 | 334 | 5.2 | 9.6 | 0.00 | 0.00 | 0.00 | 49 | 1016.5 |
| 20260504185332 | 51 | 355 | 4.3 | 13.9 | 0.00 | 0.00 | 0.00 | 48 | 1016.4 |
| 20260504184838 | 51 | 305 | 5.2 | 13.9 | 0.00 | 0.00 | 0.00 | 49 | 1016.4 |
| 20260504184344 | 51 | 317 | 6.1 | 9.6 | 0.00 | 0.00 | 0.00 | 47 | 1016.4 |
| 20260504183851 | 51 | 325 | 5.2 | 7.8 | 0.00 | 0.00 | 0.00 | 47 | 1016.4 |
| 20260504183339 | 51 | 46 | 3.5 | 13.0 | 0.00 | 0.00 | 0.00 | 48 | 1016.5 |
| 20260504182838 | 51 | 355 | 7.0 | 13.0 | 0.00 | 0.00 | 0.00 | 50 | 1016.5 |
| 20260504182328 | 51 | 333 | 3.5 | 9.6 | 0.00 | 0.00 | 0.00 | 47 | 1016.4 |
| 20260504181837 | 52 | 320 | 2.6 | 12.2 | 0.00 | 0.00 | 0.00 | 48 | 1016.6 |
| 20260504181332 | 52 | 315 | 7.0 | 12.2 | 0.00 | 0.00 | 0.00 | 47 | 1016.5 |
| 20260504180840 | 51 | 57 | 2.6 | 9.6 | 0.00 | 0.00 | 0.00 | 51 | 1016.5 |
| 20260504180342 | 51 | 314 | 5.2 | 12.2 | 0.00 | 0.00 | 0.00 | 49 | 1016.6 |
| 20260504175855 | 52 | 329 | 7.8 | 12.2 | 0.00 | 0.00 | 0.00 | 48 | 1016.6 |
| 20260504175324 | 52 | 43 | 4.3 | 11.3 | 0.00 | 0.00 | 0.00 | 47 | 1016.6 |
| 20260504174833 | 52 | 336 | 6.1 | 11.3 | 0.00 | 0.00 | 0.00 | 47 | 1016.7 |
| 20260504174339 | 52 | 270 | 3.5 | 9.6 | 0.00 | 0.00 | 0.00 | 46 | 1016.7 |
| 20260504173849 | 54 | 293 | 3.5 | 7.8 | 0.00 | 0.00 | 0.00 | 45 | 1016.8 |
| 20260504173340 | 53 | 23 | 2.6 | 7.0 | 0.00 | 0.00 | 0.00 | 48 | 1016.6 |
| 20260504172834 | 53 | 330 | 1.7 | 6.1 | 0.00 | 0.00 | 0.00 | 46 | 1016.7 |
| 20260504172404 | 52 | 75 | 3.5 | 6.1 | 0.00 | 0.00 | 0.00 | 48 | 1016.8 |
| 20260504171832 | 52 | 142 | 1.7 | 7.0 | 0.00 | 0.00 | 0.00 | 48 | 1016.8 |
| 20260504171403 | 51 | 110 | 2.6 | 7.8 | 0.00 | 0.00 | 0.00 | 51 | 1016.9 |
| 20260504170838 | 50 | 38 | 1.7 | 9.6 | 0.00 | 0.00 | 0.00 | 49 | 1016.8 |
| 20260504170349 | 49 | 334 | 3.5 | 10.4 | 0.00 | 0.00 | 0.00 | 50 | 1016.8 |
| 20260504160336 | 48 | 267 | 0.0 | 3.5 | 0.00 | 0.00 | 0.00 | 56 | 1016.9 |
| 20260504150855 | 46 | 34 | 0.9 | 3.5 | 0.00 | 0.00 | 0.00 | 59 | 1017.3 |
| 20260504150339 | 46 | 311 | 2.6 | 4.3 | 0.00 | 0.00 | 0.00 | 56 | 1017.3 |
| 20260504140833 | 44 | 143 | 0.0 | 2.6 | 0.00 | 0.00 | 0.00 | 63 | 1017.4 |
| 20260504140343 | 43 | 143 | 0.0 | 2.6 | 0.00 | 0.00 | 0.00 | 64 | 1017.4 |
| 20260504130327 | 42 | 355 | 0.9 | 1.7 | 0.00 | 0.00 | 0.00 | 63 | 1017.1 |
| 20260504110340 | 45 | 304 | 7.0 | 13.0 | 0.00 | 0.00 | 0.00 | 52 | 1016.4 |
| 20260504100352 | 47 | 331 | 4.3 | 11.3 | 0.00 | 0.00 | 0.00 | 48 | 1016.2 |
| 20260504081825 | 53 | 360 | 10.4 | 20.0 | 0.00 | 0.00 | 0.00 | 44 | 1013.6 |
| 20260504081335 | 50 | 319 | 11.3 | 21.7 | 0.00 | 0.00 | 0.00 | 47 | 1013.4 |
| 20260504080849 | 45 | 360 | 7.8 | 21.7 | 0.00 | 0.00 | 0.00 | 53 | 1013.2 |
| 20260504080337 | 46 | 105 | 0.9 | 5.2 | 0.00 | 0.00 | 0.00 | 54 | 1012.9 |
| 20260504070345 | 45 | 225 | 0.9 | 2.6 | 0.00 | 0.00 | 0.00 | 52 | 1011.8 |
| 20260504050333 | 51 | 190 | 0.9 | 2.6 | 0.00 | 0.00 | 0.00 | 45 | 1011.9 |
| 20260504045835 | 52 | 174 | 0.0 | 4.3 | 0.00 | 0.00 | 0.00 | 46 | 1011.9 |
| 20260504045326 | 52 | 169 | 1.7 | 4.3 | 0.00 | 0.00 | 0.00 | 44 | 1012.0 |
| 20260504044836 | 52 | 199 | 1.7 | 3.5 | 0.00 | 0.00 | 0.00 | 44 | 1011.9 |
| 20260504044345 | 53 | 201 | 0.9 | 5.2 | 0.00 | 0.00 | 0.00 | 44 | 1011.9 |
| 20260504043839 | 53 | 210 | 2.6 | 4.3 | 0.00 | 0.00 | 0.00 | 44 | 1011.9 |
| 20260504043347 | 53 | 221 | 0.0 | 2.6 | 0.00 | 0.00 | 0.00 | 43 | 1011.9 |
| 20260504042833 | 54 | 223 | 0.9 | 2.6 | 0.00 | 0.00 | 0.00 | 42 | 1011.8 |
| 20260504042333 | 54 | 221 | 1.7 | 2.6 | 0.00 | 0.00 | 0.00 | 40 | 1011.9 |
| 20260504041840 | 55 | 223 | 0.9 | 2.6 | 0.00 | 0.00 | 0.00 | 39 | 1011.8 |
| 20260504041339 | 55 | 223 | 0.0 | 2.6 | 0.00 | 0.00 | 0.00 | 39 | 1011.7 |
| 20260504040855 | 56 | 222 | 0.9 | 3.5 | 0.00 | 0.00 | 0.00 | 37 | 1011.7 |
| 20260504040342 | 56 | 222 | 1.7 | 3.5 | 0.00 | 0.00 | 0.00 | 38 | 1011.7 |
| 20260504035837 | 57 | 275 | 0.9 | 1.7 | 0.00 | 0.00 | 0.00 | 37 | 1011.6 |
| 20260504035323 | 58 | 273 | 0.9 | 1.7 | 0.00 | 0.00 | 0.00 | 36 | 1011.7 |
| 20260504034840 | 59 | 274 | 0.0 | 0.9 | 0.00 | 0.00 | 0.00 | 34 | 1011.7 |
| 20260504034338 | 60 | 274 | 0.9 | 0.9 | 0.00 | 0.00 | 0.00 | 33 | 1011.7 |
| 20260504033855 | 61 | 273 | 0.0 | 0.9 | 0.00 | 0.00 | 0.00 | 33 | 1011.6 |
| 20260504033326 | 62 | 274 | 0.0 | 1.7 | 0.00 | 0.00 | 0.00 | 30 | 1011.5 |
| 20260504032845 | 62 | 274 | 0.9 | 2.6 | 0.00 | 0.00 | 0.00 | 29 | 1011.5 |
| 20260504032336 | 63 | 273 | 1.7 | 4.3 | 0.00 | 0.00 | 0.00 | 29 | 1011.4 |
| 20260504031903 | 63 | 273 | 1.7 | 5.2 | 0.00 | 0.00 | 0.00 | 28 | 1011.5 |
| 20260504031349 | 63 | 273 | 2.6 | 6.1 | 0.00 | 0.00 | 0.00 | 29 | 1011.4 |
| 20260504030837 | 63 | 268 | 1.7 | 5.2 | 0.00 | 0.00 | 0.00 | 28 | 1011.4 |
| 20260504030400 | 63 | 227 | 2.6 | 5.2 | 0.00 | 0.00 | 0.00 | 28 | 1011.4 |
| 20260504025845 | 63 | 277 | 2.6 | 7.0 | 0.00 | 0.00 | 0.00 | 28 | 1011.3 |
| 20260504025335 | 63 | 279 | 2.6 | 7.0 | 0.00 | 0.00 | 0.00 | 29 | 1011.2 |
| 20260504024844 | 63 | 267 | 2.6 | 4.3 | 0.00 | 0.00 | 0.00 | 31 | 1011.2 |
| 20260504024334 | 63 | 278 | 2.6 | 5.2 | 0.00 | 0.00 | 0.00 | 31 | 1011.1 |
| 20260504023907 | 64 | 278 | 1.7 | 6.1 | 0.00 | 0.00 | 0.00 | 30 | 1011.1 |
| 20260504023341 | 64 | 277 | 2.6 | 6.1 | 0.00 | 0.00 | 0.00 | 30 | 1011.1 |
| 20260504022829 | 65 | 273 | 2.6 | 4.3 | 0.00 | 0.00 | 0.00 | 28 | 1011.0 |
| 20260504022337 | 65 | 278 | 1.7 | 3.5 | 0.00 | 0.00 | 0.00 | 29 | 1010.9 |
| 20260504021827 | 66 | 276 | 0.9 | 3.5 | 0.00 | 0.00 | 0.00 | 28 | 1010.9 |
| 20260504021332 | 66 | 276 | 1.7 | 3.5 | 0.00 | 0.00 | 0.00 | 28 | 1011.0 |
| 20260504020840 | 66 | 276 | 1.7 | 3.5 | 0.00 | 0.00 | 0.00 | 27 | 1011.0 |
| 20260504020330 | 67 | 276 | 1.7 | 4.3 | 0.00 | 0.00 | 0.00 | 26 | 1011.0 |
| 20260504015824 | 67 | 276 | 1.7 | 7.0 | 0.00 | 0.00 | 0.00 | 26 | 1010.9 |
| 20260504015343 | 68 | 306 | 4.3 | 7.0 | 0.00 | 0.00 | 0.00 | 25 | 1011.0 |
| 20260504014834 | 68 | 284 | 1.7 | 5.2 | 0.00 | 0.00 | 0.00 | 26 | 1011.0 |
| 20260504014340 | 68 | 305 | 2.6 | 7.0 | 0.00 | 0.00 | 0.00 | 26 | 1011.0 |
| 20260504013830 | 68 | 276 | 4.3 | 7.0 | 0.00 | 0.00 | 0.00 | 25 | 1011.0 |
| 20260504013337 | 68 | 263 | 1.7 | 7.8 | 0.00 | 0.00 | 0.00 | 25 | 1010.9 |
| 20260504012830 | 68 | 285 | 3.5 | 12.2 | 0.00 | 0.00 | 0.00 | 24 | 1011.0 |
| 20260504012335 | 69 | 281 | 6.1 | 12.2 | 0.00 | 0.00 | 0.00 | 24 | 1011.0 |
| 20260504011841 | 69 | 270 | 4.3 | 8.7 | 0.00 | 0.00 | 0.00 | 24 | 1011.1 |
| 20260504011359 | 69 | 250 | 4.3 | 12.2 | 0.00 | 0.00 | 0.00 | 24 | 1011.2 |
| 20260504010849 | 69 | 283 | 6.1 | 14.8 | 0.00 | 0.00 | 0.00 | 23 | 1011.2 |
| 20260504010336 | 70 | 263 | 6.1 | 14.8 | 0.00 | 0.00 | 0.00 | 23 | 1011.2 |
| 20260504005829 | 70 | 360 | 6.1 | 13.9 | 0.00 | 0.00 | 0.00 | 23 | 1011.2 |
| 20260504005337 | 70 | 304 | 5.2 | 13.9 | 0.00 | 0.00 | 0.00 | 22 | 1011.2 |
| 20260504004848 | 70 | 280 | 7.0 | 10.4 | 0.00 | 0.00 | 0.00 | 22 | 1011.2 |
| 20260504004402 | 71 | 323 | 6.1 | 13.9 | 0.00 | 0.00 | 0.00 | 21 | 1011.3 |
| 20260504003832 | 71 | 304 | 6.1 | 13.9 | 0.00 | 0.00 | 0.00 | 20 | 1011.3 |
| 20260504003340 | 71 | 331 | 4.3 | 8.7 | 0.00 | 0.00 | 0.00 | 21 | 1011.3 |
| 20260504002829 | 72 | 259 | 4.3 | 9.6 | 0.00 | 0.00 | 0.00 | 20 | 1011.4 |
| 20260504002351 | 72 | 276 | 4.3 | 12.2 | 0.00 | 0.00 | 0.00 | 21 | 1011.4 |
| 20260504001835 | 72 | 250 | 7.0 | 12.2 | 0.00 | 0.00 | 0.00 | 19 | 1011.4 |
| 20260504001324 | 72 | 252 | 6.1 | 12.2 | 0.00 | 0.00 | 0.00 | 21 | 1011.4 |
| 20260504000832 | 72 | 298 | 7.0 | 12.2 | 0.00 | 0.00 | 0.00 | 21 | 1011.5 |
| 20260504000336 | 72 | 279 | 2.6 | 9.6 | 0.00 | 0.00 | 0.00 | 25 | 1011.4 |
| 20260503235858 | 72 | 284 | 5.2 | 9.6 | 0.00 | 0.00 | 0.00 | 22 | 1011.4 |
| 20260503235338 | 72 | 267 | 3.5 | 9.6 | 0.00 | 0.00 | 0.00 | 24 | 1011.5 |
| 20260503234857 | 72 | 273 | 5.2 | 9.6 | 0.00 | 0.00 | 0.00 | 24 | 1011.5 |
| 20260503234341 | 71 | 286 | 3.5 | 9.6 | 0.00 | 0.00 | 0.00 | 24 | 1011.6 |
| 20260503233857 | 71 | 269 | 4.3 | 12.2 | 0.00 | 0.00 | 0.00 | 22 | 1011.5 |
| 20260503233335 | 71 | 265 | 5.2 | 13.0 | 0.00 | 0.00 | 0.00 | 25 | 1011.5 |
| 20260503232904 | 71 | 246 | 5.2 | 13.0 | 0.00 | 0.00 | 0.00 | 24 | 1011.5 |
| 20260503232332 | 71 | 259 | 7.0 | 13.0 | 0.00 | 0.00 | 0.00 | 23 | 1011.7 |
| 20260503231838 | 72 | 261 | 2.6 | 9.6 | 0.00 | 0.00 | 0.00 | 23 | 1011.7 |
| 20260503231326 | 72 | 286 | 4.3 | 9.6 | 0.00 | 0.00 | 0.00 | 24 | 1011.7 |
| 20260503230834 | 72 | 234 | 5.2 | 9.6 | 0.00 | 0.00 | 0.00 | 23 | 1011.8 |
| 20260503230350 | 72 | 344 | 2.6 | 13.0 | 0.00 | 0.00 | 0.00 | 23 | 1011.8 |
| 20260503225901 | 71 | 350 | 4.3 | 18.2 | 0.00 | 0.00 | 0.00 | 24 | 1011.9 |
| 20260503225333 | 72 | 180 | 7.8 | 18.2 | 0.00 | 0.00 | 0.00 | 23 | 1011.9 |
| 20260503224835 | 72 | 302 | 4.3 | 10.4 | 0.00 | 0.00 | 0.00 | 25 | 1011.9 |
| 20260503224351 | 71 | 215 | 2.6 | 7.8 | 0.00 | 0.00 | 0.00 | 29 | 1011.9 |
| 20260503223838 | 71 | 265 | 2.6 | 10.4 | 0.00 | 0.00 | 0.00 | 26 | 1012.0 |
| 20260503223347 | 71 | 279 | 4.3 | 10.4 | 0.00 | 0.00 | 0.00 | 25 | 1012.1 |
| 20260503222833 | 71 | 320 | 3.5 | 13.9 | 0.00 | 0.00 | 0.00 | 28 | 1012.0 |
| 20260503222338 | 72 | 222 | 8.7 | 13.9 | 0.00 | 0.00 | 0.00 | 24 | 1012.3 |
| 20260503221831 | 71 | 277 | 8.7 | 12.2 | 0.00 | 0.00 | 0.00 | 26 | 1012.2 |
| 20260503221407 | 72 | 270 | 4.3 | 7.0 | 0.00 | 0.00 | 0.00 | 26 | 1012.2 |
| 20260503220834 | 71 | 309 | 1.7 | 7.8 | 0.00 | 0.00 | 0.00 | 29 | 1012.3 |
| 20260503220328 | 71 | 317 | 3.5 | 13.9 | 0.00 | 0.00 | 0.00 | 25 | 1012.5 |
| 20260503215835 | 71 | 285 | 7.0 | 11.3 | 0.00 | 0.00 | 0.00 | 23 | 1012.6 |
| 20260503215347 | 71 | 211 | 4.3 | 15.6 | 0.00 | 0.00 | 0.00 | 23 | 1012.5 |
| 20260503214837 | 71 | 244 | 7.8 | 15.6 | 0.00 | 0.00 | 0.00 | 23 | 1012.6 |
| 20260503214349 | 71 | 239 | 5.2 | 9.6 | 0.00 | 0.00 | 0.00 | 22 | 1012.6 |
| 20260503213836 | 71 | 304 | 4.3 | 8.7 | 0.00 | 0.00 | 0.00 | 23 | 1012.6 |
| 20260503213343 | 71 | 200 | 3.5 | 10.4 | 0.00 | 0.00 | 0.00 | 21 | 1012.7 |
| 20260503212830 | 71 | 254 | 4.3 | 11.3 | 0.00 | 0.00 | 0.00 | 23 | 1012.9 |
| 20260503212338 | 71 | 324 | 5.2 | 11.3 | 0.00 | 0.00 | 0.00 | 20 | 1012.8 |
| 20260503211848 | 71 | 322 | 2.6 | 10.4 | 0.00 | 0.00 | 0.00 | 21 | 1012.9 |
| 20260503211349 | 71 | 307 | 6.1 | 15.6 | 0.00 | 0.00 | 0.00 | 22 | 1013.1 |
| 20260503210839 | 70 | 238 | 7.8 | 15.6 | 0.00 | 0.00 | 0.00 | 21 | 1013.0 |
| 20260503210336 | 70 | 304 | 4.3 | 12.2 | 0.00 | 0.00 | 0.00 | 22 | 1013.2 |
| 20260503205844 | 70 | 360 | 8.7 | 12.2 | 0.00 | 0.00 | 0.00 | 23 | 1013.3 |
| 20260503205332 | 70 | 308 | 4.3 | 12.2 | 0.00 | 0.00 | 0.00 | 24 | 1013.2 |